AZU4853 SBKP-SBVT

Flight info

Callsign AZU4853
Flight time N/A
Altitude 37000
Route UREMI UZ42 IMDAB DCT SEGLI DCT TODET
Aircraft A20N/M-SDE2E3FGHIRWXY/LB1

Departure

Time 2026-05-01 13:12
Airport Viracopos International Airport (SBKP)

Arrival

Time N/A
Airport Eurico de Aguiar Salles International Airport (SBVT)
Time Latitude Longitude Altitude Speed Heading
2026-05-01 13:01 -23.00428 -47.14824 2157 ft 0 kts 218°
2026-05-01 13:07 -23.00402 -47.14773 2153 ft 0 kts 308°
2026-05-01 13:07 -23.00392 -47.14788 2149 ft 4 kts 303°
2026-05-01 13:07 -23.00370 -47.14821 2154 ft 5 kts 307°
2026-05-01 13:08 -23.00338 -47.14867 2155 ft 10 kts 307°
2026-05-01 13:08 -23.00300 -47.14919 2152 ft 8 kts 308°
2026-05-01 13:08 -23.00269 -47.14962 2152 ft 8 kts 307°
2026-05-01 13:08 -23.00228 -47.15015 2153 ft 8 kts 324°
2026-05-01 13:09 -23.00181 -47.15002 2157 ft 8 kts 34°
2026-05-01 13:09 -23.00128 -47.14959 2149 ft 10 kts 37°
2026-05-01 13:09 -23.00072 -47.14913 2152 ft 11 kts 38°
2026-05-01 13:09 -23.00019 -47.14858 2153 ft 11 kts 62°
2026-05-01 13:10 -22.99970 -47.14799 2156 ft 11 kts 40°
2026-05-01 13:10 -22.99916 -47.14752 2153 ft 9 kts 49°
2026-05-01 13:10 -22.99890 -47.14689 2157 ft 9 kts 76°
2026-05-01 13:10 -22.99893 -47.14634 2150 ft 2 kts 120°
2026-05-01 13:11 -22.99899 -47.14627 2153 ft 0 kts 128°
2026-05-01 13:11 -22.99936 -47.14575 2152 ft 32 kts 128°
2026-05-01 13:11 -23.00215 -47.14183 2152 ft 96 kts 128°
2026-05-01 13:12 -23.00734 -47.13459 2149 ft 144 kts 128°
2026-05-01 13:12 -23.01403 -47.12516 2465 ft 159 kts 128°
2026-05-01 13:12 -23.02095 -47.11569 3054 ft 161 kts 131°
2026-05-01 13:12 -23.02870 -47.10663 3473 ft 168 kts 128°
2026-05-01 13:13 -23.03756 -47.09746 3801 ft 185 kts 141°
2026-05-01 13:13 -23.04870 -47.08942 4105 ft 201 kts 145°
2026-05-01 13:13 -23.06107 -47.08117 4320 ft 217 kts 146°
2026-05-01 13:13 -23.07467 -47.07228 4461 ft 240 kts 147°
2026-05-01 13:14 -23.08966 -47.06242 4667 ft 264 kts 146°
2026-05-01 13:14 -23.10033 -47.05536 4871 ft 277 kts 146°